FW3258 Weather Reports


Display with metric or nautical units.
time (UTC)temp
F
wind
direction
speed
MPH
gust
MPH
rain 1hr
in
rain 24hr
in
rain mn
in
humidity
%
barometer
mb
20260507140534 46 283 5.0 6.0 0.00 0.01 0.00 77 1015.4
20260507135534 47 258 2.0 3.0 0.00 0.02 0.00 81 1015.6
20260507134539 46 300 0.0 0.0 0.00 0.02 0.00 83 1015.6
20260507133534 45 360 0.0 0.0 0.00 0.02 0.00 83 1015.6
20260507131636 45 67 0.0 1.0 0.00 0.02 0.00 88 1015.5
20260507130734 43 22 0.0 2.0 0.00 0.02 0.00 90 1015.6
20260507125735 42 315 2.0 3.0 0.00 0.02 0.00 92 1015.5
20260507124735 42 270 5.0 7.0 0.00 0.02 0.00 93 1015.6
20260507123734 41 307 6.0 10.0 0.00 0.03 0.00 96 1015.6
20260507122738 40 292 5.0 7.0 0.00 0.03 0.00 98 1015.7
20260507121836 39 247 2.0 2.0 0.00 0.03 0.00 98 1015.5
20260507120836 38 157 0.0 0.0 0.00 0.04 0.00 99 1015.4
20260507115837 38 157 0.0 0.0 0.00 0.04 0.00 98 1015.4
20260507113836 38 157 0.0 0.0 0.00 0.05 0.00 99 1015.3
20260507112934 37 157 0.0 0.0 0.00 0.06 0.00 98 1015.0
20260507111938 37 157 0.0 1.0 0.00 0.07 0.00 98 1015.0
20260507111036 36 157 0.0 1.0 0.00 0.08 0.00 98 1014.8
20260507105036 35 157 0.0 0.0 0.00 0.09 0.00 99 1014.4
20260507104037 36 157 0.0 0.0 0.00 0.10 0.00 98 1014.3
20260507101035 35 225 0.0 0.0 0.00 0.12 0.00 99 1014.2
20260507100050 34 225 0.0 0.0 0.00 0.13 0.00 99 1014.1
20260507095037 33 225 0.0 0.0 0.00 0.14 0.00 97 1014.0
20260507094034 33 225 0.0 0.0 0.00 0.15 0.00 97 1014.1
20260507093038 33 225 0.0 0.0 0.00 0.16 0.00 98 1014.0
20260507092937 33 225 0.0 0.0 0.00 0.17 0.00 98 1014.0
20260507091938 33 225 0.0 0.0 0.00 0.17 0.00 98 1014.1
20260507091036 33 225 0.0 0.0 0.00 0.19 0.00 98 1014.1
20260507090038 34 225 0.0 0.0 0.00 0.21 0.00 97 1014.1
20260507085037 33 225 0.0 0.0 0.00 0.22 0.00 97 1014.2
20260507084936 33 225 0.0 0.0 0.00 0.22 0.00 97 1014.1
20260507084034 33 225 0.0 0.0 0.00 0.23 0.00 98 1014.1
20260507083039 34 225 0.0 0.0 0.00 0.25 0.00 98 1014.3
20260507081037 33 225 0.0 0.0 0.00 0.27 0.00 97 1014.4
20260507080036 34 225 0.0 0.0 0.00 0.28 0.00 97 1014.3
20260507075036 34 225 0.0 0.0 0.00 0.28 0.00 97 1014.4
20260507074035 35 225 0.0 0.0 0.00 0.30 0.00 97 1014.2
20260507073038 36 225 0.0 0.0 0.00 0.30 0.00 97 1014.2
20260507072036 36 225 0.0 0.0 0.00 0.31 0.00 97 1014.3
20260507071036 36 225 0.0 1.0 0.00 0.32 0.00 97 1014.5
20260507070053 37 247 0.0 0.0 0.00 0.33 0.00 97 1014.6
20260507065135 37 247 0.0 0.0 0.00 0.34 0.00 96 1014.8
20260507064135 37 247 0.0 0.0 0.00 0.35 0.00 96 1015.0
20260507063234 38 247 0.0 0.0 0.00 0.38 0.00 95 1015.0
20260507062236 38 247 0.0 0.0 0.00 0.41 0.00 95 1014.9
20260507061236 39 247 0.0 0.0 0.00 0.44 0.00 96 1015.0
20260507060336 39 247 0.0 0.0 0.00 0.48 0.00 96 1015.0
20260507054337 40 247 0.0 0.0 0.00 0.52 0.00 95 1015.2
20260507053334 40 247 0.0 0.0 0.00 0.53 0.00 95 1015.2
20260507052335 40 247 0.0 0.0 0.00 0.55 0.00 94 1015.5
20260507051335 40 247 0.0 0.0 0.00 0.56 0.00 95 1015.5
20260507051237 40 247 0.0 0.0 0.00 0.57 0.00 95 1015.5
20260507045336 41 247 0.0 0.0 0.00 0.61 0.00 94 1015.6
20260507044350 41 270 0.0 0.0 0.00 0.63 0.00 94 1015.7
20260507043436 41 270 0.0 0.0 0.00 0.64 0.00 95 1015.5
20260507042435 41 270 0.0 0.0 0.00 0.65 0.00 94 1015.7
20260507041434 41 270 0.0 0.0 0.00 0.66 0.00 93 1015.8
20260507040436 41 270 0.0 0.0 0.00 0.66 0.00 93 1015.7
20260507034542 41 270 0.0 0.0 0.00 0.68 0.66 93 1015.5
20260507033543 41 270 0.0 0.0 0.00 0.69 0.66 93 1015.4
20260507032642 41 292 0.0 0.0 0.00 0.70 0.66 94 1015.5
20260507030743 41 292 0.0 0.0 0.00 0.72 0.66 94 1015.8
20260507025743 42 281 1.0 1.0 0.00 0.74 0.66 92 1015.7
20260507024743 42 288 1.0 3.0 0.00 0.75 0.66 93 1015.6
20260507023743 41 292 0.0 1.0 0.00 0.76 0.66 93 1015.4
20260507022841 42 292 0.0 0.0 0.00 0.77 0.66 93 1015.4
20260507022743 42 292 0.0 0.0 0.00 0.77 0.66 93 1015.3
20260507021742 42 292 0.0 1.0 0.00 0.79 0.66 92 1015.5
20260507020743 42 292 0.0 0.0 0.00 0.80 0.66 93 1015.5
20260507014741 42 270 1.0 2.0 0.00 0.81 0.66 93 1015.7
20260507014643 42 270 1.0 2.0 0.00 0.81 0.66 92 1015.7
20260507013643 42 270 2.0 3.0 0.00 0.82 0.66 93 1015.8
20260507012742 42 270 2.0 3.0 0.00 0.83 0.66 93 1015.6
20260507011743 42 270 1.0 2.0 0.00 0.84 0.66 93 1015.6
20260507010659 42 292 1.0 1.0 0.00 0.85 0.66 93 1015.3
20260507005642 42 292 0.0 0.0 0.00 0.87 0.66 93 1015.4
20260507004642 42 292 0.0 0.0 0.00 0.88 0.66 93 1015.4
20260507003742 42 292 0.0 0.0 0.00 0.89 0.66 92 1015.3
20260507002743 42 292 0.0 0.0 0.00 0.91 0.66 91 1015.2
20260507000743 43 292 2.0 2.0 0.00 0.94 0.66 92 1014.7
20260506235742 43 292 1.0 1.0 0.00 0.95 0.66 91 1014.8
20260506234842 43 270 1.0 2.0 0.00 0.95 0.66 91 1014.6
20260506233841 43 315 1.0 1.0 0.00 0.97 0.66 93 1014.5
20260506232844 43 292 4.0 5.0 0.00 0.99 0.66 92 1014.8
20260506231844 43 299 3.0 4.0 0.00 1.00 0.66 94 1014.8
20260506230841 43 282 1.0 4.0 0.00 1.02 0.66 94 1014.6
20260506225842 43 309 4.0 6.0 0.00 1.04 0.66 93 1014.5
20260506224844 43 283 2.0 4.0 0.00 1.08 0.66 94 1014.6
20260506223941 43 270 6.0 6.0 0.00 1.11 0.66 93 1014.5
20260506221944 43 304 6.0 7.0 0.00 1.15 0.66 92 1014.1
20260506221040 44 281 5.0 6.0 0.00 1.17 0.66 91 1013.8
20260506220043 44 304 5.0 7.0 0.00 1.20 0.66 90 1013.8
20260506215043 44 277 7.0 8.0 0.00 1.21 0.66 89 1013.7
20260506214043 45 258 8.0 8.0 0.00 1.23 0.66 85 1013.5
20260506213142 46 270 10.0 12.0 0.00 1.24 0.66 83 1013.5
20260506211143 49 270 13.0 21.0 0.00 1.32 0.66 76 1012.9
20260506210142 50 281 9.0 10.0 0.00 1.32 0.66 78 1012.9
20260506205142 49 270 11.0 11.0 0.00 1.33 0.66 77 1012.6
20260506203142 50 247 5.0 5.0 0.00 1.33 0.66 75 1012.9
20260506201142 51 274 8.0 11.0 0.00 1.33 0.66 75 1012.9
20260506200241 50 283 7.0 10.0 0.00 1.33 0.66 75 1012.8
20260506195243 50 293 7.0 8.0 0.00 1.33 0.66 75 1012.8
20260506194243 50 255 7.0 8.0 0.00 1.33 0.66 78 1012.8
20260506193342 50 300 8.0 10.0 0.00 1.33 0.66 79 1012.9
20260506192343 50 304 9.0 12.0 0.00 1.33 0.66 80 1012.9
20260506191441 50 277 6.0 7.0 0.00 1.33 0.66 81 1012.8
20260506184443 49 307 5.0 6.0 0.00 1.33 0.66 90 1012.6
20260506183344 49 225 0.0 0.0 0.00 1.33 0.66 92 1012.8
20260506182441 48 67 0.0 0.0 0.00 1.33 0.66 92 1012.8
20260506181442 47 30 1.0 2.0 0.01 1.33 0.66 93 1012.9
20260506180442 46 337 0.0 1.0 0.01 1.33 0.66 94 1012.8
20260506175541 46 270 5.0 6.0 0.01 1.33 0.66 95 1012.8
20260506174541 46 315 2.0 3.0 0.01 1.33 0.66 94 1012.9
20260506172542 45 343 2.0 6.0 0.01 1.33 0.66 94 1012.7
20260506171641 45 292 5.0 5.0 0.00 1.32 0.65 93 1012.8
20260506165741 46 300 5.0 7.0 0.00 1.32 0.65 95 1012.7
20260506164743 46 307 2.0 3.0 0.00 1.32 0.65 95 1012.6
20260506163744 47 348 1.0 2.0 0.00 1.32 0.65 95 1012.5
20260506161842 47 7 4.0 5.0 0.00 1.32 0.65 97 1012.2
20260506160843 46 315 1.0 3.0 0.00 1.32 0.65 98 1012.3
20260506155842 46 45 2.0 2.0 0.00 1.32 0.65 97 1012.3
20260506154940 46 315 3.0 4.0 0.00 1.32 0.65 98 1012.2
20260506154040 46 292 0.0 0.0 0.00 1.32 0.65 98 1012.1
20260506153043 46 354 0.0 1.0 0.00 1.32 0.65 99 1012.2
20260506152043 46 45 0.0 0.0 0.00 1.32 0.65 99 1012.1
20260506151043 46 315 2.0 3.0 0.00 1.32 0.65 99 1012.1
20260506150141 46 292 1.0 2.0 0.01 1.32 0.65 99 1012.1
20260506150057 46 292 1.0 1.0 0.01 1.32 0.65 99 1011.9
20260506145142 45 67 0.0 0.0 0.01 1.32 0.65 98 1011.8
20260506144241 45 67 0.0 0.0 0.01 1.32 0.65 99 1011.7
20260506143243 45 67 0.0 0.0 0.01 1.32 0.65 100 1011.6
20260506142243 45 67 0.0 0.0 0.01 1.32 0.65 100 1011.5
20260506141340 44 67 0.0 0.0 0.01 1.32 0.65 99 1011.5